ST5-C

Satellite information

Favourite Embed

Satellite Type and Status

PAYLOADIN ORBIT

Key statistics

Satellite ST5-C at a glance.

Uptime

7047

Days in orbit

Revolutions

≈ 13.7

Per day

Orbit

SSO

Sun Synchronous Orbit

Inclination

105.5

Latest

Satellite identification and parameters

Extended collection of information and parameters for ST5-C.

Object identification

Identified? True

Debris? False

Object name: ST5-C

International designator: 2006-008C

Object number (NORAD): 28982

Object ID (CCSDS): 28982

Country: UNITED STATES OF AMERICA (US)

Current information (Y/N): Y

RCS size: MEDIUM

Orbital parameters

Period: 105.066 minutes

Inclination: 105.4834 deg

SMA: 7375.667 km

Apoapsis: 1733.288 km

Periapsis: 261.775 km

RAAN: 148.2543 deg

Eccentricy: 0.0997546

Argument of periapsis: 263.3202 deg

Mean anomaly: 85.3599 deg

Mean motion: 13.70568786 rev/day

Mean motion (dot): 0.00031159 rev/day2

B* drag term: 0.00044603 1/REarth

Two-line elements (TLE)

Creation date: July 6, 2025, 10:36 p.m.

Reference frame: TEME

Reference center: EARTH

Epoch: July 6, 2025, 9:25 p.m. UTC

TLE line 0: 0 ST5-C

TLE line 1: 1 28982U 06008C 25187.89273645 .00031159 47977-5 44603-3 0 9998

TLE line 2: 2 28982 105.4834 148.2543 0997546 263.3202 85.3599 13.70568786818187

Live tracking on map

Real-time ground track for satellite ST5-C.

In-orbit conjunctions

There are no conjunctions computed for ST5-C, at the moment. Check back to stay up to date, as we update our databases every day.

Go to all conjunctions

Associated space launch

NASA's three micro-sats were launched to test and validate new technologies for future science missions. ST5's objective was to demonstrate and flight qualify several innovative technologies and concepts for application to future space missions.

ST5-C was lifted into orbit during the mission ‘Pegasus XL | ST-5 FWD’, on board a Pegasus XL space rocket.

The launch took place on March 22, 2006, 2:03 p.m. from Vandenberg Space Force Base.

For more information about the launch, click the button.

Launch to space Pegasus XL | ST-5 FWD
Pegasus XL | ST-5 FWD

Agency: N/A

Status: Launch Successful

Launch date: March 22, 2006, 2:03 p.m. UTC

Rocket: Pegasus XL

Launch pad: Vandenberg Space Force Base

Location: Air launch to orbit

...

Latest news about this satellite

There are no fresh news available about this satellite. Check back as we update our databases every day.


Newsletter sign-up

Weekly statistics, charts and insights to help you stay on top of the space industry.